• In Netherlands
  • List of Countries
  • For 7 days
  • Water Temperature
  • Satellite Maps
  • Weather Map
  • Weather Widgets
  • user-avatar
    Login

    Hourly Weather Oran

    Today, 22 September, Friday

    Time Temperature Precipitation Wind Pressure Humidity
    00:00 +26°C° 0 mm 2 mps 751 mmHg 67%
    01:00 +26°C° 0 mm 2 mps 751 mmHg 69%
    02:00 +25°C° 0 mm 2 mps 751 mmHg 72%
    03:00 +25°C° 0 mm 1 mps 751 mmHg 74%
    04:00 +24°C° 0 mm 1 mps 751 mmHg 77%
    05:00 +24°C° 0 mm 1 mps 751 mmHg 79%
    06:00 +24°C° 0 mm 1 mps 751 mmHg 82%
    07:00 +25°C° 0 mm 2 mps 751 mmHg 76%
    08:00 +26°C° 0 mm 2 mps 752 mmHg 70%
    09:00 +27°C° 0 mm 2 mps 752 mmHg 64%
    10:00 +28°C° 0 mm 2 mps 752 mmHg 59%
    11:00 +29°C° 0 mm 3 mps 752 mmHg 54%
    12:00 +30°C° 0 mm 3 mps 752 mmHg 49%
    13:00 +30°C° 0 mm 3 mps 752 mmHg 49%
    14:00 +30°C° 0 mm 4 mps 752 mmHg 49%
    15:00 +30°C° 0 mm 5 mps 751 mmHg 49%
    16:00 +30°C° 0 mm 5 mps 751 mmHg 52%
    17:00 +29°C° 0 mm 5 mps 751 mmHg 55%
    18:00 +29°C° 0 mm 5 mps 751 mmHg 58%
    19:00 +28°C° 0 mm 4 mps 751 mmHg 62%
    20:00 +28°C° 0 mm 4 mps 752 mmHg 65%
    21:00 +27°C° 0 mm 4 mps 752 mmHg 69%
    22:00 +26°C° 0 mm 4 mps 752 mmHg 72%
    23:00 +26°C° 0 mm 4 mps 752 mmHg 76%

    Tomorrow, 23 September, Saturday

    Time Temperature Precipitation Wind Pressure Humidity
    00:00 +26°C° 0 mm 4 mps 752 mmHg 79%
    01:00 +25°C° 0 mm 4 mps 752 mmHg 82%
    02:00 +25°C° 0 mm 3 mps 752 mmHg 84%
    03:00 +24°C° 0 mm 3 mps 751 mmHg 87%
    04:00 +24°C° 0 mm 3 mps 752 mmHg 87%
    05:00 +24°C° 0 mm 3 mps 752 mmHg 86%
    06:00 +24°C° 0 mm 3 mps 752 mmHg 86%
    07:00 +25°C° 0 mm 3 mps 752 mmHg 78%
    08:00 +26°C° 0 mm 3 mps 753 mmHg 71%
    09:00 +28°C° 0 mm 3 mps 753 mmHg 63%
    10:00 +29°C° 0 mm 3 mps 753 mmHg 56%
    11:00 +32°C° 0 mm 4 mps 753 mmHg 49%
    12:00 +33°C° 0 mm 4 mps 753 mmHg 42%
    13:00 +33°C° 0 mm 4 mps 752 mmHg 45%
    14:00 +33°C° 0 mm 5 mps 752 mmHg 48%
    15:00 +32°C° 0 mm 5 mps 752 mmHg 51%
    16:00 +30°C° 0 mm 5 mps 752 mmHg 56%
    17:00 +29°C° 0 mm 4 mps 752 mmHg 61%
    18:00 +28°C° 0 mm 4 mps 752 mmHg 66%
    19:00 +28°C° 0 mm 4 mps 753 mmHg 69%
    20:00 +27°C° 0 mm 3 mps 753 mmHg 72%
    21:00 +27°C° 0 mm 3 mps 754 mmHg 75%
    22:00 +26°C° 0 mm 2 mps 754 mmHg 78%
    23:00 +26°C° 0 mm 2 mps 754 mmHg 80%

    Day after tomorrow, 24 September, Sunday

    Time Temperature Precipitation Wind Pressure Humidity
    00:00 +25°C° 0 mm 2 mps 754 mmHg 83%
    01:00 +25°C° 0 mm 2 mps 754 mmHg 85%
    02:00 +25°C° 0 mm 2 mps 753 mmHg 87%
    03:00 +24°C° 0 mm 1 mps 753 mmHg 89%
    04:00 +24°C° 0 mm 1 mps 753 mmHg 90%
    05:00 +24°C° 0 mm 1 mps 754 mmHg 91%
    06:00 +24°C° 0 mm 1 mps 754 mmHg 91%
    07:00 +25°C° 0 mm 1 mps 754 mmHg 83%
    08:00 +26°C° 0 mm 2 mps 754 mmHg 75%
    09:00 +27°C° 0 mm 2 mps 755 mmHg 66%
    10:00 +29°C° 0 mm 2 mps 754 mmHg 59%
    11:00 +30°C° 0 mm 3 mps 754 mmHg 52%
    12:00 +31°C° 0 mm 3 mps 754 mmHg 45%
    13:00 +33°C° 0 mm 4 mps 754 mmHg 44%
    14:00 +33°C° 0 mm 4 mps 754 mmHg 43%
    15:00 +33°C° 0 mm 4 mps 753 mmHg 42%
    16:00 +32°C° 0 mm 4 mps 753 mmHg 47%
    17:00 +30°C° 0 mm 4 mps 753 mmHg 51%
    18:00 +29°C° 0 mm 3 mps 753 mmHg 56%
    19:00 +29°C° 0 mm 3 mps 754 mmHg 60%
    20:00 +28°C° 0 mm 2 mps 754 mmHg 64%
    21:00 +27°C° 0 mm 2 mps 754 mmHg 68%
    22:00 +27°C° 0 mm 2 mps 754 mmHg 70%
    23:00 +26°C° 0 mm 1 mps 754 mmHg 73%

    25 September, Monday

    Time Temperature Precipitation Wind Pressure Humidity
    00:00 +26°C° 0 mm 1 mps 754 mmHg 76%
    01:00 +25°C° 0 mm 1 mps 754 mmHg 78%
    02:00 +23°C° 0 mm 0 mps 753 mmHg 81%
    03:00 +22°C° 0 mm 0 mps 753 mmHg 83%
    04:00 +22°C° 0 mm 0 mps 753 mmHg 84%
    05:00 +22°C° 0 mm 0 mps 753 mmHg 85%
    06:00 +21°C° 0 mm 0 mps 753 mmHg 87%
    07:00 +23°C° 0 mm 0 mps 753 mmHg 77%
    08:00 +24°C° 0 mm 0 mps 754 mmHg 68%
    09:00 +26°C° 0 mm 0 mps 754 mmHg 59%
    10:00 +29°C° 0 mm 1 mps 754 mmHg 51%
    11:00 +31°C° 0 mm 1 mps 753 mmHg 44%
    12:00 +32°C° 0 mm 2 mps 753 mmHg 36%
    13:00 +32°C° 0 mm 2 mps 753 mmHg 36%
    14:00 +34°C° 0 mm 3 mps 752 mmHg 35%
    15:00 +34°C° 0 mm 3 mps 752 mmHg 34%
    16:00 +32°C° 0 mm 2 mps 752 mmHg 37%
    17:00 +31°C° 0 mm 2 mps 752 mmHg 41%
    18:00 +30°C° 0 mm 1 mps 752 mmHg 44%
    19:00 +29°C° 0 mm 1 mps 752 mmHg 46%
    20:00 +29°C° 0 mm 1 mps 753 mmHg 49%
    21:00 +26°C° 0 mm 0 mps 753 mmHg 51%
    22:00 +25°C° 0 mm 0 mps 753 mmHg 53%
    23:00 +25°C° 0 mm 0 mps 753 mmHg 55%

    26 September, Tuesday

    Time Temperature Precipitation Wind Pressure Humidity
    00:00 +24°C° 0 mm 0 mps 752 mmHg 57%
    01:00 +26°C° 0 mm 1 mps 752 mmHg 58%
    02:00 +25°C° 0 mm 1 mps 752 mmHg 59%
    03:00 +25°C° 0 mm 1 mps 752 mmHg 60%
    04:00 +24°C° 0 mm 1 mps 752 mmHg 61%
    05:00 +22°C° 0 mm 0 mps 752 mmHg 62%
    06:00 +21°C° 0 mm 0 mps 752 mmHg 62%
    07:00 +23°C° 0 mm 0 mps 752 mmHg 54%
    08:00 +25°C° 0 mm 0 mps 753 mmHg 46%
    09:00 +27°C° 0 mm 0 mps 753 mmHg 38%
    10:00 +30°C° 0 mm 1 mps 753 mmHg 34%
    11:00 +32°C° 0 mm 2 mps 753 mmHg 30%
    12:00 +34°C° 0 mm 3 mps 752 mmHg 25%
    13:00 +34°C° 0 mm 3 mps 752 mmHg 26%
    14:00 +34°C° 0 mm 3 mps 752 mmHg 27%
    15:00 +34°C° 0 mm 4 mps 751 mmHg 29%
    16:00 +33°C° 0 mm 3 mps 751 mmHg 32%
    17:00 +31°C° 0 mm 3 mps 752 mmHg 35%
    18:00 +30°C° 0 mm 3 mps 752 mmHg 38%
    19:00 +29°C° 0 mm 3 mps 752 mmHg 41%
    20:00 +28°C° 0 mm 2 mps 753 mmHg 45%
    21:00 +28°C° 0 mm 2 mps 753 mmHg 48%
    22:00 +27°C° 0 mm 2 mps 753 mmHg 50%
    23:00 +26°C° 0 mm 2 mps 753 mmHg 53%

    27 September, Wednesday

    Time Temperature Precipitation Wind Pressure Humidity
    00:00 +26°C° 0 mm 2 mps 753 mmHg 55%
    01:00 +25°C° 0 mm 2 mps 752 mmHg 57%
    02:00 +25°C° 0 mm 2 mps 752 mmHg 59%
    03:00 +24°C° 0 mm 2 mps 752 mmHg 61%
    04:00 +24°C° 0 mm 2 mps 752 mmHg 63%
    05:00 +24°C° 0 mm 2 mps 753 mmHg 65%
    06:00 +23°C° 0 mm 2 mps 753 mmHg 67%
    07:00 +25°C° 0 mm 2 mps 753 mmHg 60%
    08:00 +27°C° 0 mm 2 mps 753 mmHg 53%
    09:00 +28°C° 0 mm 3 mps 753 mmHg 46%
    10:00 +29°C° 0 mm 3 mps 753 mmHg 41%
    11:00 +32°C° 0 mm 4 mps 753 mmHg 37%
    12:00 +33°C° 0 mm 4 mps 753 mmHg 32%
    13:00 +33°C° 0 mm 5 mps 753 mmHg 33%
    14:00 +33°C° 0 mm 5 mps 752 mmHg 34%
    15:00 +33°C° 0 mm 6 mps 752 mmHg 34%
    16:00 +32°C° 0 mm 5 mps 752 mmHg 39%
    17:00 +30°C° 0 mm 5 mps 752 mmHg 44%
    18:00 +29°C° 0 mm 5 mps 753 mmHg 49%
    19:00 +28°C° 0 mm 5 mps 753 mmHg 53%
    20:00 +28°C° 0 mm 4 mps 753 mmHg 56%
    21:00 +27°C° 0 mm 4 mps 754 mmHg 60%
    22:00 +26°C° 0 mm 4 mps 754 mmHg 63%
    23:00 +26°C° 0 mm 4 mps 754 mmHg 66%
    Show more